[[{"header":{"parameterUnit":"m.s-1","parameterCategory":1,"la1":30.2991,"la2":30.254,"lo1":-89.0895,"lo2":-89.0444,"dy":0.0017,"dx":0.0017,"nx":28,"ny":28,"refTime":"2023-09-01T21:00:00:Z","depth":0,"parameterNumber":2,"parameterNumberName":"U-component_of_WINDS"},"data":[0,0,0,0,0,0,0,0,0,0,0,0,0,0,0,0,0,0,0,0,0,0,0,0,0,0,0,0,0,0,0,0,0,0,0,0,0,0,0,0,0,0,0,0,0,0,0,0,0,0,0,0,0,0,0,0,0,0,-1.386,-1.386,0,-1.3801,-1.38,-1.38,-1.3761,-1.3761,-1.3761,-1.376,-1.3697,-1.3695,-1.3694,0,0,0,0,0,0,0,0,0,0,0,0,0,-1.3936,-1.3935,-1.386,-1.3859,-1.3859,-1.3801,-1.38,-1.38,-1.3761,-1.3761,-1.3761,-1.376,-1.3697,-1.3696,-1.3694,0,0,0,0,0,0,0,0,0,0,0,0,0,-1.3892,-1.3934,-1.386,-1.3833,-1.383,-1.3801,-1.38,-1.3799,-1.3761,-1.3761,-1.3761,-1.376,-1.3698,-1.3696,-1.3694,-1.3687,0,0,-1.3687,-1.3686,0,0,0,0,0,0,0,0,-1.3895,-1.389,-1.3838,-1.3835,-1.3831,-1.3788,-1.3804,-1.3762,-1.3761,-1.3787,-1.376,-1.376,-1.3727,-1.3723,-1.3712,-1.3684,-1.3682,-1.3687,-1.3685,-1.3684,-1.3684,0,0,0,0,0,0,0,-1.3898,-1.3892,-1.3837,-1.3837,-1.3833,-1.3822,-1.3815,-1.3796,-1.376,-1.3785,-1.3782,-1.3776,-1.3725,-1.3715,-1.3711,-1.3681,-1.3687,-1.3685,-1.3683,-1.3683,-1.3642,-1.3642,0,0,0,0,0,0,-1.3906,-1.3895,-1.3839,-1.3835,-1.3863,-1.3821,-1.3814,-1.3802,-1.376,-1.3753,-1.3776,-1.3774,-1.3718,-1.3713,-1.3708,-1.3696,-1.3684,-1.3682,-1.3681,-1.3642,-1.3642,-1.3642,0,0,0,0,0,0,-1.3908,-1.3901,-1.3841,-1.3864,-1.3856,-1.382,-1.3808,-1.3801,-1.379,-1.3753,-1.3746,-1.3772,-1.3718,-1.3711,-1.3692,-1.3694,-1.3681,-1.3679,-1.3641,-1.3642,-1.3642,-1.3674,0,0,0,0,0,0,-1.391,-1.3902,-1.39,-1.3864,-1.3855,-1.3828,-1.3808,-1.38,-1.3787,-1.3784,-1.3747,-1.3741,-1.3717,-1.3696,-1.369,-1.369,-1.3678,-1.3641,-1.3642,-1.3642,-1.3673,-1.3675,-1.3678,0,0,0,0,0,-1.3913,-1.3911,-1.39,-1.3894,-1.3852,-1.3828,-1.3822,-1.3796,-1.3787,-1.3784,-1.376,-1.3742,-1.3695,-1.3694,-1.3688,-1.3687,-1.3641,-1.3641,-1.3642,-1.3671,-1.3675,-1.3678,0,0,0,0,0,0,-1.3948,-1.3906,-1.3894,-1.3881,-1.3858,-1.3821,-1.3817,-1.38,-1.3779,-1.3777,-1.3744,-1.3736,-1.372,-1.3702,-1.3702,-1.3678,-1.3665,-1.3665,-1.369,-1.3693,-1.3696,-1.37,-1.3676,0,0,0,0,0,-1.3954,-1.3939,-1.3903,-1.3895,-1.3885,-1.3853,-1.3842,-1.3823,-1.3798,-1.3788,-1.3763,-1.3738,-1.3717,-1.3704,-1.3683,-1.367,-1.366,-1.3666,-1.3669,-1.3671,-1.367,-1.366,-1.3661,-1.3644,-1.3644,-1.3644,0,0,-1.3967,-1.3942,-1.3935,-1.3902,-1.3882,-1.3866,-1.3845,-1.383,-1.3817,-1.3785,-1.3766,-1.3746,-1.3716,-1.37,-1.3691,-1.3684,-1.3673,-1.3672,-1.3674,-1.3672,-1.3661,-1.3662,-1.3664,-1.3644,-1.3644,-1.3644,0,0,-1.3981,-1.3962,-1.3952,-1.3933,-1.3904,-1.3883,-1.388,-1.3846,-1.3832,-1.3812,-1.3788,-1.3771,-1.3737,-1.3716,-1.3701,-1.3707,-1.3688,-1.3701,-1.3713,-1.3704,-1.3705,-1.3706,-1.3707,-1.3707,-1.37,-1.37,-1.37,0,-1.4,-1.3976,-1.3949,-1.3935,-1.392,-1.3892,-1.3881,-1.3863,-1.3828,-1.3818,-1.3811,-1.3766,-1.3744,-1.3721,-1.3723,-1.3712,-1.3707,-1.3704,-1.3707,-1.3708,-1.3709,-1.3709,-1.3709,-1.3702,-1.3702,-1.3702,-1.3701,0,-1.4,-1.3984,-1.398,-1.3947,-1.3932,-1.392,-1.3889,-1.3877,-1.386,-1.3839,-1.3818,-1.379,-1.3762,-1.3756,-1.3739,-1.373,-1.3726,-1.3714,-1.3701,-1.3712,-1.3712,-1.3712,-1.3704,-1.3704,-1.3703,-1.3703,0,0,-1.4035,-1.3988,-1.3986,-1.3971,-1.3936,-1.3922,-1.3907,-1.3881,-1.387,-1.3847,-1.3832,-1.3803,-1.3791,-1.3774,-1.3754,-1.3746,-1.375,-1.3734,-1.3732,-1.3736,-1.3737,-1.3746,-1.3746,-1.3738,-1.3738,-1.3738,-1.3739,0,-1.4043,-1.4017,-1.3992,-1.3973,-1.3957,-1.3929,-1.3916,-1.3892,-1.3872,-1.3854,-1.3831,-1.3811,-1.3797,-1.3786,-1.3777,-1.3751,-1.3749,-1.3751,-1.3722,-1.3722,-1.373,-1.3746,-1.3756,-1.3758,-1.3738,-1.3738,-1.3738,0,-1.4049,-1.4028,-1.4008,-1.3974,-1.3966,-1.3955,-1.3928,-1.3912,-1.3883,-1.3869,-1.385,-1.3829,-1.381,-1.3799,-1.3772,-1.3774,-1.3761,-1.3746,-1.3746,-1.3741,-1.373,-1.3741,-1.3759,-1.3759,-1.3738,-1.3738,-1.3738,0,-1.4075,-1.4041,-1.4024,-1.4012,-1.3972,-1.3964,-1.3947,-1.3919,-1.3904,-1.388,-1.387,-1.3844,-1.3829,-1.3809,-1.378,-1.3776,-1.3755,-1.3743,-1.3741,-1.3742,-1.3738,-1.3738,-1.3753,-1.3731,-1.3731,-1.3731,-1.3731,0,-1.4086,-1.4074,-1.4035,-1.4025,-1.401,-1.3981,-1.3968,-1.3948,-1.3923,-1.3907,-1.3881,-1.3866,-1.383,-1.3811,-1.3789,-1.3768,-1.3762,-1.3749,-1.3743,-1.3751,-1.3752,-1.3741,-1.3739,-1.3731,-1.3731,-1.3731,-1.3731,0,-1.4111,-1.4085,-1.4064,-1.4028,-1.4019,-1.401,-1.3978,-1.3966,-1.3945,-1.3925,-1.3918,-1.3884,-1.3859,-1.3829,-1.3795,-1.378,-1.3761,-1.3753,-1.3771,-1.3768,-1.3767,-1.3767,-1.3774,-1.3773,-1.3754,-1.3754,-1.3754,0,-1.4119,-1.411,-1.4073,-1.4061,-1.4045,-1.4026,-1.4011,-1.3981,-1.3967,-1.3933,-1.3925,-1.3899,-1.3876,-1.3838,-1.3809,-1.3782,-1.3772,-1.3776,-1.3768,-1.3776,-1.3771,-1.3771,-1.3769,-1.3778,-1.3779,-1.3779,-1.3779,0,-1.4136,-1.4123,-1.4104,-1.4079,-1.4062,-1.404,-1.4018,-1.4009,-1.3975,-1.3959,-1.3934,-1.3917,-1.3882,-1.3856,-1.3825,-1.3805,-1.3786,-1.3782,-1.378,-1.3788,-1.3798,-1.3791,-1.3776,-1.3782,-1.3782,-1.3782,-1.3781,-1.3781,-1.4152,-1.4142,-1.4114,-1.4093,-1.4073,-1.4052,-1.4039,-1.4016,-1.3995,-1.3965,-1.3949,-1.3924,-1.3895,-1.3852,-1.3833,-1.3812,-1.3805,-1.3802,-1.3801,-1.3801,-1.3803,-1.3802,-1.3806,-1.3806,-1.3806,-1.3806,-1.3806,0,-1.4166,-1.4147,-1.4128,-1.4097,-1.408,-1.4065,-1.4039,-1.4024,-1.4004,-1.3979,-1.3957,-1.3928,-1.3902,-1.3871,-1.3842,-1.3832,-1.3822,-1.3825,-1.3825,-1.382,-1.3811,-1.3815,-1.3833,-1.3833,-1.3833,-1.3833,-1.3833,-1.3833,-1.4172,-1.4154,-1.4138,-1.4109,-1.4089,-1.4066,-1.4052,-1.4032,-1.4012,-1.3981,-1.396,-1.394,-1.3912,-1.3881,-1.3856,-1.3847,-1.3837,-1.3843,-1.3832,-1.3824,-1.3821,-1.3819,-1.3822,-1.3842,-1.3842,-1.3842,-1.3842,-1.3842]},{"header":{"parameterUnit":"m.s-1","parameterCategory":1,"la1":30.2991,"la2":30.254,"lo1":-89.0895,"lo2":-89.0444,"dy":0.0017,"dx":0.0017,"nx":28,"ny":28,"refTime":"2023-09-01T21:00:00:Z","depth":0,"parameterNumber":3,"parameterNumberName":"V-component_of_WINDS"},"data":[0,0,0,0,0,0,0,0,0,0,0,0,0,0,0,0,0,0,0,0,0,0,0,0,0,0,0,0,0,0,0,0,0,0,0,0,0,0,0,0,0,0,0,0,0,0,0,0,0,0,0,0,0,0,0,0,0,0,-1.9034,-1.9034,0,-1.9086,-1.9087,-1.9087,-1.9114,-1.9114,-1.9114,-1.9114,-1.9164,-1.9166,-1.9167,0,0,0,0,0,0,0,0,0,0,0,0,0,-1.8953,-1.8955,-1.9034,-1.9034,-1.9035,-1.9086,-1.9087,-1.9087,-1.9114,-1.9114,-1.9114,-1.9114,-1.9164,-1.9166,-1.9167,0,0,0,0,0,0,0,0,0,0,0,0,0,-1.8995,-1.8955,-1.9034,-1.9055,-1.9057,-1.9086,-1.9087,-1.9087,-1.9114,-1.9114,-1.9114,-1.9114,-1.9164,-1.9165,-1.9167,-1.9178,0,0,-1.9173,-1.9174,0,0,0,0,0,0,0,0,-1.8993,-1.8998,-1.9051,-1.9053,-1.9056,-1.9094,-1.9077,-1.9118,-1.9114,-1.9092,-1.9114,-1.9114,-1.9141,-1.9144,-1.9154,-1.9181,-1.9183,-1.9174,-1.9175,-1.9176,-1.9176,0,0,0,0,0,0,0,-1.899,-1.8996,-1.9054,-1.9052,-1.9055,-1.906,-1.9066,-1.9085,-1.9115,-1.9094,-1.9096,-1.9102,-1.9142,-1.9152,-1.9155,-1.9183,-1.9173,-1.9175,-1.9176,-1.9177,-1.922,-1.922,0,0,0,0,0,0,-1.8984,-1.8993,-1.9053,-1.9056,-1.9024,-1.9061,-1.9068,-1.9081,-1.9115,-1.9121,-1.9102,-1.9103,-1.9149,-1.9153,-1.9157,-1.9172,-1.9176,-1.9177,-1.9178,-1.922,-1.922,-1.922,0,0,0,0,0,0,-1.8982,-1.8989,-1.9051,-1.9025,-1.9033,-1.9063,-1.9077,-1.9082,-1.9093,-1.9121,-1.9127,-1.9107,-1.9149,-1.9155,-1.9173,-1.9174,-1.9178,-1.918,-1.922,-1.922,-1.922,-1.92,0,0,0,0,0,0,-1.898,-1.8988,-1.8994,-1.9025,-1.9035,-1.9066,-1.9078,-1.9083,-1.9096,-1.9098,-1.9127,-1.9132,-1.9149,-1.917,-1.9175,-1.9176,-1.9182,-1.922,-1.922,-1.922,-1.9201,-1.92,-1.9199,0,0,0,0,0,-1.8977,-1.8986,-1.8994,-1.9001,-1.9042,-1.9066,-1.9072,-1.9092,-1.9096,-1.9101,-1.9119,-1.9131,-1.9173,-1.9171,-1.9177,-1.918,-1.922,-1.922,-1.922,-1.9202,-1.92,-1.9199,0,0,0,0,0,0,-1.8953,-1.899,-1.9,-1.9019,-1.904,-1.9071,-1.9078,-1.909,-1.9109,-1.911,-1.9133,-1.914,-1.9155,-1.9169,-1.9167,-1.9191,-1.9197,-1.9198,-1.9182,-1.918,-1.9179,-1.9175,-1.9183,0,0,0,0,0,-1.895,-1.8968,-1.8999,-1.9013,-1.9023,-1.9048,-1.906,-1.9074,-1.9095,-1.9104,-1.9123,-1.9143,-1.916,-1.9171,-1.9188,-1.9203,-1.9209,-1.9207,-1.9206,-1.9205,-1.9205,-1.9213,-1.9212,-1.922,-1.922,-1.922,0,0,-1.8944,-1.8967,-1.8976,-1.9009,-1.9026,-1.9042,-1.9056,-1.9073,-1.9084,-1.9106,-1.9125,-1.9139,-1.9162,-1.9178,-1.9187,-1.919,-1.9205,-1.9205,-1.9204,-1.9205,-1.9213,-1.9212,-1.9212,-1.922,-1.922,-1.922,0,0,-1.8942,-1.8961,-1.8975,-1.8992,-1.9018,-1.9035,-1.9038,-1.9067,-1.9078,-1.9097,-1.9113,-1.9127,-1.9157,-1.9172,-1.9184,-1.9185,-1.9197,-1.919,-1.9184,-1.9191,-1.919,-1.919,-1.919,-1.9189,-1.9191,-1.9191,-1.9191,0,-1.8931,-1.8958,-1.898,-1.8996,-1.9009,-1.903,-1.9043,-1.9058,-1.9088,-1.9096,-1.91,-1.9137,-1.9154,-1.9173,-1.9174,-1.9183,-1.9186,-1.9187,-1.9189,-1.9188,-1.9188,-1.9188,-1.9188,-1.919,-1.919,-1.919,-1.919,0,-1.8943,-1.896,-1.8968,-1.8997,-1.9011,-1.9026,-1.9049,-1.906,-1.9072,-1.9088,-1.9106,-1.9127,-1.9149,-1.9154,-1.9166,-1.9175,-1.9177,-1.9184,-1.9191,-1.9186,-1.9187,-1.9187,-1.9189,-1.9189,-1.9189,-1.9189,0,0,-1.8928,-1.8969,-1.8971,-1.8984,-1.9014,-1.9027,-1.9041,-1.9064,-1.9072,-1.9092,-1.9103,-1.9127,-1.9134,-1.9147,-1.9161,-1.9167,-1.9166,-1.9174,-1.9175,-1.9172,-1.9176,-1.917,-1.917,-1.9174,-1.9174,-1.9174,-1.9174,0,-1.893,-1.8958,-1.8978,-1.8998,-1.9014,-1.9033,-1.9045,-1.9063,-1.9078,-1.9093,-1.9109,-1.9125,-1.9133,-1.9141,-1.9148,-1.9165,-1.9167,-1.9165,-1.9184,-1.9184,-1.9178,-1.917,-1.9164,-1.9163,-1.9174,-1.9174,-1.9174,0,-1.8936,-1.8955,-1.8977,-1.9004,-1.9011,-1.9022,-1.9043,-1.9057,-1.9078,-1.9088,-1.9102,-1.9116,-1.913,-1.9136,-1.9155,-1.9153,-1.9162,-1.9171,-1.9171,-1.9174,-1.9179,-1.9172,-1.9164,-1.9163,-1.9175,-1.9175,-1.9175,0,-1.8922,-1.8954,-1.8971,-1.8981,-1.9013,-1.902,-1.9033,-1.9054,-1.9066,-1.9083,-1.9091,-1.9109,-1.912,-1.9133,-1.9151,-1.9153,-1.9168,-1.9175,-1.9176,-1.9175,-1.9179,-1.9178,-1.9171,-1.9184,-1.9184,-1.9184,-1.9184,0,-1.8922,-1.8935,-1.8965,-1.8975,-1.8989,-1.9011,-1.9023,-1.9038,-1.9056,-1.9068,-1.9085,-1.9096,-1.912,-1.9133,-1.9147,-1.916,-1.9165,-1.9172,-1.9176,-1.9171,-1.917,-1.9177,-1.9177,-1.9184,-1.9184,-1.9184,-1.9184,0,-1.891,-1.8931,-1.895,-1.8979,-1.8986,-1.8995,-1.9018,-1.9028,-1.9043,-1.9058,-1.9063,-1.9087,-1.9103,-1.9122,-1.9145,-1.9154,-1.9166,-1.9171,-1.9159,-1.9161,-1.9161,-1.916,-1.9158,-1.9158,-1.9171,-1.9171,-1.9171,0,-1.8909,-1.8919,-1.8948,-1.8958,-1.8971,-1.8986,-1.8998,-1.9019,-1.903,-1.9054,-1.906,-1.9078,-1.9094,-1.9119,-1.9137,-1.9154,-1.9159,-1.9157,-1.9162,-1.9156,-1.9159,-1.9158,-1.9158,-1.9156,-1.9156,-1.9156,-1.9155,0,-1.8904,-1.8913,-1.893,-1.895,-1.8964,-1.898,-1.8997,-1.9004,-1.9028,-1.9039,-1.9057,-1.9069,-1.9092,-1.9108,-1.9127,-1.914,-1.9151,-1.9154,-1.9155,-1.915,-1.9142,-1.9145,-1.9155,-1.9154,-1.9154,-1.9154,-1.9154,-1.9154,-1.8897,-1.8906,-1.8928,-1.8945,-1.896,-1.8976,-1.8986,-1.9002,-1.9017,-1.9038,-1.9049,-1.9066,-1.9085,-1.9111,-1.9123,-1.9135,-1.9139,-1.9141,-1.9141,-1.9141,-1.9139,-1.914,-1.9139,-1.9139,-1.9139,-1.9139,-1.9139,0,-1.8892,-1.8907,-1.8923,-1.8947,-1.896,-1.897,-1.8989,-1.8999,-1.9014,-1.9031,-1.9046,-1.9064,-1.9081,-1.91,-1.9117,-1.9123,-1.9128,-1.9126,-1.9126,-1.9128,-1.9135,-1.9133,-1.9122,-1.9122,-1.9122,-1.9122,-1.9122,-1.9122,-1.8892,-1.8908,-1.8919,-1.8942,-1.8956,-1.8974,-1.8983,-1.8997,-1.901,-1.9031,-1.9045,-1.9057,-1.9075,-1.9093,-1.9107,-1.9113,-1.9118,-1.9114,-1.9121,-1.9127,-1.9128,-1.913,-1.9127,-1.9115,-1.9115,-1.9113,-1.9113,-1.9113]}]]